Regional Weather Roundup
Issued by NWS

Home | Current Version | Previous Version | Text Only | Print | Product List | Glossary Off
Versions: 1 2 3 4 5 6 7 8 9 10 11 12 13 14 15 16 17 18 19 20 21 22 23 24 25 26 27 28 29 30 31 32 33 34 35 36 37 38 39 40 41 42 43 44 45 46 47 48 49 50

000
ASUS43 KLOT 082208
RWRIL

ILLINOIS REGIONAL WEATHER ROUNDUP
NATIONAL WEATHER SERVICE CHICAGO/ROMEOVILLE IL
400 PM CST THU DEC 08 2016

NOTE: "FAIR" INDICATES FEW OR NO CLOUDS BELOW 12,000 FEET WITH NO
SIGNIFICANT WEATHER AND/OR OBSTRUCTIONS TO VISIBILITY.

* THESE STATIONS ARE NOT UNDER NWS QUALITY CONTROL. THEY ALSO MAY NOT
  REPORT WEATHER SUCH AS PRECIPITATION OR FOG.

ILZ001-002-007-009-015-016-024-082300-
NORTHWEST ILLINOIS

CITY           SKY/WX    TMP DP  RH WIND       PRES   REMARKS
MOLINE         CLOUDY    22  13  68 W15G23    30.45R WCI   9
STERLING*      FLURRIES  22  17  81 W16       30.41R WCI   8
SAVANNA*       CLOUDY    23  15  70 W17G26    30.41R WCI   9
$$

ILZ003-004-008-010-011-017-018-082300-
NORTH CENTRAL ILLINOIS

CITY           SKY/WX    TMP DP  RH WIND       PRES   REMARKS
ROCKFORD       FLURRIES  23  15  71 W18       30.38R WCI   9
FREEPORT*      FLURRIES  22  16  78 W15       30.39R WCI   8
ROCHELLE*      CLOUDY    21  16  79 W17       30.38S WCI   7
DE KALB*       FLURRIES  21  16  79 W20       30.36R WCI   6
$$

ILZ005-006-012>014-019>023-082300-
NORTHEAST ILLINOIS

CITY           SKY/WX    TMP DP  RH WIND       PRES   REMARKS
CHICAGO-OHARE  CLOUDY    22  14  71 W18       30.34R WCI   7
CHICAGO-MIDWAY FLURRIES  22  13  68 W16G24    30.35R WCI   8
AURORA         CLOUDY    22  15  75 W17       30.37R WCI   8
LANSING*       CLOUDY    20  15  81 W12G25    30.36R WCI   8
JOLIET*        CLOUDY    23  16  75 W15G22    30.39R WCI  10
WAUKEGAN       CLOUDY    24  15  68 W9G20     30.30R WCI  14
DUPAGE AIRPORT CLOUDY    21  13  71 W14G22    30.35R WCI   8
KANKAKEE*      FLURRIES  21  14  73 W14G22    30.40R WCI   8
WHEELING       CLOUDY    22  14  71 W15       30.34R WCI   9
MORRIS*        CLOUDY    22  16  78 W17       30.39R WCI   7
ROMEOVILLE*    FLURRIES  21  17  87 W13       30.37R WCI   8
NORTHERLY ISL    N/A     22  15  75 W18         N/A  WCI   8
$$

LMZ740>746-082300-
SOUTHERN LAKE MICHIGAN

STATION/POSITION SKY/WX   TEMP    WIND        PRES    VSBY  WAVE
                          AIR SEA DIR/SP/G                  HT/PER
                          (F)     (DEG/KT/KT) (MB)    (MI)  (FT/S)
HARRISON CRIB              23     280/ 21/ 24   N/A
BURNHAM HARBOR             23     280/ 18/ 21   N/A
CALUMET HARBOR             21     250/  9/ 16 1026.8R
BURNS HARBOR               23     280/ 19     1027.1R
$$

ILZ025>027-034>036-040-047-049-050-058-095>099-082300-
WEST-CENTRAL ILLINOIS

CITY           SKY/WX    TMP DP  RH WIND       PRES   REMARKS
QUINCY         PTCLDY    24  11  57 NW16      30.50R WCI  11
GALESBURG*     FLURRIES  20  13  75 W16G22    30.47R WCI   6
MACOMB*        CLOUDY    21  13  69 NW17      30.52R WCI   7
JACKSONVILLE*  CLOUDY    24  13  60 NW16G28   30.50R WCI  11
PITTSFIELD*    MOCLDY    26  14  60 W10       30.51S WCI  16
$$

ILZ028>032-037-038-041>044-048-051>054-059>061-082300-
CENTRAL ILLINOIS

CITY           SKY/WX    TMP DP  RH WIND       PRES   REMARKS
PONTIAC        CLOUDY    23  16  75 W18G25    30.43R WCI   8
BLOOMINGTON    FLURRIES  20  13  74 W22       30.43R WCI   3
DECATUR        CLOUDY    22  11  62 NW18G25   30.46R WCI   7
PEORIA         CLOUDY    21  12  68 NW10      30.47R WCI  10
LACON*         FLURRIES  22  14  72 NW12G24   30.45R WCI  10
LINCOLN*       CLOUDY    23  13  67 NW8G17    30.48R WCI  14
SPRINGFIELD    CLOUDY    25  13  60 NW16      30.49R WCI  12
TAYLORVILLE    CLOUDY    24  13  65 NW12G17   30.48R WCI  12
$$

ILZ033-039-045-046-055>057-062-063-082300-
EAST-CENTRAL ILLINOIS

CITY           SKY/WX    TMP DP  RH WIND       PRES   REMARKS
CHAMPAIGN      CLOUDY    22  12  65 W21       30.44R WCI   6
RANTOUL*       CLOUDY    23  15  71 W17       30.42R WCI   9
MATTOON        CLOUDY    23  12  62 NW17      30.44R WCI   9
PARIS*         CLOUDY    23  15  72 W17G23    30.45R WCI   9
$$

ILZ079-100>102-082300-
SOUTHWEST ILLINOIS

CITY           SKY/WX    TMP DP  RH WIND       PRES   REMARKS
ALTON          PTCLDY    27  14  59 NW13      30.50R WCI  16
BELLEVILLE     CLEAR     28  13  53 NW14      30.50R WCI  17
CAHOKIA*       CLEAR     29  12  49 NW18      30.52R WCI  16
SPARTA*        CLEAR     29  14  52 W7        30.51R WCI  22
$$

ILZ064>066-069>071-074>076-080>082-084>086-088>090-092>094-082300-
SOUTH-CENTRAL ILLINOIS

CITY           SKY/WX    TMP DP  RH WIND       PRES   REMARKS
CARBONDALE     CLEAR     30  14  51 NW12      30.50R WCI  20
CAIRO*         CLEAR     34  15  46 W7        30.49R WCI  28
EFFINGHAM*     CLOUDY    26  17  71 W15       30.49R WCI  13
MARION         PTCLDY    32  16  51 NW5       30.50R WCI  27
CENTRALIA*     MOCLDY    29  16  59 NW15      30.48R WCI  18
SALEM*         PTCLDY    28  14  55 NW14G20   30.48R WCI  17
METROPOLIS*    CLEAR     33  14  44 NW8       30.49R WCI  26
$$

ILZ067-068-072-073-078-083-087-091-082300-
SOUTHEAST ILLINOIS

CITY           SKY/WX    TMP DP  RH WIND       PRES   REMARKS
LAWRENCEVILLE  CLOUDY    26  15  63 NW17      30.47R WCI  13
FLORA*         CLOUDY    28  16  59 NW15G21   30.49R WCI  17
FAIRFIELD*     PTCLDY    28  15  57 NW6       30.48R WCI  22
HARRISBURG*    CLEAR     30  16  55 NW10G18   30.50R WCI  21
ROBINSON*      CLOUDY    24  14  66 NW13G20   30.48R WCI  12
CARMI*         CLOUDY    29  18  62 W15       30.48R WCI  18
$$

ABBREVIATIONS USED IN REMARKS
   TC - TEMPERATURE IN CELSIUS
  WCI - WIND CHILL INDEX
   HX - HEAT INDEX
  VSB - VISIBILITY
$$




USA.gov is the U.S. government's official web portal to all federal, state and local government web resources and services.